N996A KABQ-KGUC

Flight info

Callsign N996A
Flight time 0h 54m
Altitude 31000
Route LARGO3 ABQ ALS/N0386F300 ICORY
Aircraft P180/L-SBDFGM3RWXY/LB1

Departure

Time 2026-05-08 18:12
Airport Albuquerque International Sunport (KABQ)

Arrival

Time 2026-05-08 19:06
Airport Gunnison Crested Butte Regional Airport (KGUC)
Time Latitude Longitude Altitude Speed Heading
2026-05-08 17:54 35.03900 -106.61725 5315 ft 0 kts 180°
2026-05-08 17:59 35.03899 -106.61725 5315 ft 0 kts 180°
2026-05-08 18:00 35.03900 -106.61725 5337 ft 0 kts 180°
2026-05-08 18:08 35.03899 -106.61725 5318 ft 0 kts 180°
2026-05-08 18:09 35.03898 -106.61725 5318 ft 0 kts 184°
2026-05-08 18:09 35.03895 -106.61724 5318 ft 2 kts 162°
2026-05-08 18:09 35.03925 -106.61695 5315 ft 9 kts
2026-05-08 18:09 35.03995 -106.61724 5319 ft 12 kts 329°
2026-05-08 18:10 35.04052 -106.61796 5321 ft 12 kts 305°
2026-05-08 18:10 35.04104 -106.61883 5322 ft 14 kts 308°
2026-05-08 18:10 35.04170 -106.61982 5322 ft 16 kts 309°
2026-05-08 18:10 35.04235 -106.62089 5325 ft 16 kts 309°
2026-05-08 18:11 35.04330 -106.62146 5324 ft 17 kts
2026-05-08 18:11 35.04434 -106.62137 5324 ft 7 kts 36°
2026-05-08 18:11 35.04437 -106.62108 5323 ft 0 kts 90°
2026-05-08 18:11 35.04436 -106.62061 5323 ft 20 kts 90°
2026-05-08 18:12 35.04430 -106.61649 5320 ft 96 kts 90°
2026-05-08 18:12 35.04426 -106.60934 5322 ft 154 kts 90°
2026-05-08 18:12 35.04402 -106.59532 6171 ft 169 kts 91°
2026-05-08 18:12 35.04386 -106.58040 7196 ft 193 kts 88°
2026-05-08 18:13 35.04347 -106.56291 8262 ft 212 kts 89°
2026-05-08 18:13 35.04208 -106.54479 9543 ft 222 kts 99°
2026-05-08 18:13 35.03587 -106.52689 10610 ft 232 kts 119°
2026-05-08 18:13 35.02135 -106.50803 11565 ft 236 kts 141°
2026-05-08 18:14 35.01181 -106.50056 11811 ft 247 kts 149°
2026-05-08 18:14 34.99594 -106.49301 12597 ft 235 kts 167°
2026-05-08 18:14 34.97986 -106.49159 13352 ft 233 kts 187°
2026-05-08 18:14 34.96450 -106.49672 14030 ft 228 kts 207°
2026-05-08 18:15 34.95126 -106.50691 14593 ft 224 kts 224°
2026-05-08 18:15 34.94027 -106.52029 15135 ft 223 kts 232°
2026-05-08 18:15 34.93071 -106.53469 15618 ft 222 kts 247°
2026-05-08 18:15 34.92704 -106.55281 16081 ft 215 kts 274°
2026-05-08 18:16 34.92935 -106.56942 16936 ft 194 kts 293°
2026-05-08 18:16 34.93501 -106.58473 17312 ft 200 kts 303°
2026-05-08 18:16 34.94162 -106.59939 17896 ft 197 kts 304°
2026-05-08 18:16 34.94863 -106.61414 18269 ft 205 kts 305°
2026-05-08 18:17 34.95650 -106.62947 18492 ft 215 kts 308°
2026-05-08 18:17 34.96471 -106.64431 19030 ft 210 kts 308°
2026-05-08 18:17 34.97290 -106.65919 19425 ft 212 kts 308°
2026-05-08 18:17 34.98108 -106.67414 19843 ft 212 kts 308°
2026-05-08 18:18 34.98926 -106.68917 20261 ft 213 kts 308°
2026-05-08 18:18 34.99744 -106.70425 20661 ft 214 kts 308°
2026-05-08 18:18 35.00564 -106.71950 21058 ft 215 kts 308°
2026-05-08 18:18 35.01383 -106.73478 21485 ft 216 kts 308°
2026-05-08 18:19 35.02204 -106.75015 21906 ft 217 kts 308°
2026-05-08 18:19 35.03029 -106.76563 22359 ft 218 kts 308°
2026-05-08 18:19 35.03848 -106.78119 22807 ft 219 kts 307°
2026-05-08 18:19 35.04786 -106.79546 23249 ft 214 kts 326°
2026-05-08 18:20 35.06062 -106.80375 23691 ft 211 kts 346°
2026-05-08 18:20 35.07512 -106.80487 24058 ft 212 kts
2026-05-08 18:20 35.08917 -106.79901 24432 ft 215 kts 20°
2026-05-08 18:20 35.10296 -106.79172 24817 ft 216 kts 20°
2026-05-08 18:21 35.11703 -106.78524 25205 ft 216 kts 16°
2026-05-08 18:21 35.13134 -106.77935 25604 ft 217 kts 16°
2026-05-08 18:21 35.14569 -106.77339 26013 ft 218 kts 16°
2026-05-08 18:21 35.16009 -106.76730 26200 ft 220 kts 16°
2026-05-08 18:22 35.17458 -106.76119 26609 ft 221 kts 16°
2026-05-08 18:22 35.18912 -106.75502 27025 ft 222 kts 16°
2026-05-08 18:22 35.20377 -106.74885 27448 ft 223 kts 16°
2026-05-08 18:22 35.21848 -106.74262 27871 ft 224 kts 16°
2026-05-08 18:23 35.23326 -106.73638 28302 ft 225 kts 16°
2026-05-08 18:23 35.24815 -106.73008 28734 ft 227 kts 16°
2026-05-08 18:23 35.26332 -106.72368 28944 ft 237 kts 16°
2026-05-08 18:23 35.27929 -106.71694 28950 ft 253 kts 17°
2026-05-08 18:24 35.29636 -106.70971 28976 ft 265 kts 17°
2026-05-08 18:24 35.31416 -106.70215 28995 ft 276 kts 17°
2026-05-08 18:24 35.33266 -106.69430 29030 ft 286 kts 16°
2026-05-08 18:24 35.35179 -106.68616 29046 ft 295 kts 16°
2026-05-08 18:25 35.39169 -106.66927 29069 ft 310 kts 16°
2026-05-08 18:25 35.43329 -106.65157 29094 ft 322 kts 17°
2026-05-08 18:26 35.47629 -106.63328 29106 ft 331 kts 17°
2026-05-08 18:26 35.51997 -106.61466 29111 ft 338 kts 17°
2026-05-08 18:27 35.55746 -106.59872 29123 ft 342 kts 17°
2026-05-08 18:27 35.61009 -106.57617 29133 ft 347 kts 17°
2026-05-08 18:28 35.65592 -106.55665 29145 ft 350 kts 17°
2026-05-08 18:28 35.70175 -106.53697 29243 ft 351 kts 17°
2026-05-08 18:29 35.74807 -106.51723 29336 ft 353 kts 17°
2026-05-08 18:29 35.79432 -106.49735 29589 ft 350 kts 17°
2026-05-08 18:30 35.81727 -106.48745 29746 ft 348 kts 17°
2026-05-08 18:30 35.84006 -106.47763 29915 ft 346 kts 17°
2026-05-08 18:30 35.86279 -106.46790 30241 ft 345 kts 16°
2026-05-08 18:30 35.88546 -106.45817 30383 ft 344 kts 16°
2026-05-08 18:31 35.90795 -106.44848 30536 ft 342 kts 16°
2026-05-08 18:31 35.93037 -106.43882 30680 ft 341 kts 16°
2026-05-08 18:31 35.95269 -106.42916 30817 ft 339 kts 16°
2026-05-08 18:31 35.97464 -106.41962 30956 ft 338 kts 16°
2026-05-08 18:32 35.99682 -106.41012 31086 ft 336 kts 16°
2026-05-08 18:32 36.01899 -106.40057 31080 ft 339 kts 15°
2026-05-08 18:32 36.06390 -106.38137 31060 ft 344 kts 17°
2026-05-08 18:33 36.10931 -106.36138 31038 ft 348 kts 15°
2026-05-08 18:33 36.15530 -106.34170 31001 ft 352 kts 16°
2026-05-08 18:34 36.20163 -106.32149 30969 ft 353 kts 15°
2026-05-08 18:34 36.24812 -106.30136 30940 ft 354 kts 16°
2026-05-08 18:35 36.29428 -106.28123 30938 ft 354 kts 16°
2026-05-08 18:35 36.34077 -106.26104 30944 ft 354 kts 16°
2026-05-08 18:36 36.38736 -106.24074 30944 ft 355 kts 15°
2026-05-08 18:36 36.43393 -106.22037 30954 ft 355 kts 15°
2026-05-08 18:37 36.48056 -106.20002 30946 ft 355 kts 15°
2026-05-08 18:37 36.52717 -106.17959 30956 ft 355 kts 15°
2026-05-08 18:38 36.57383 -106.15916 30959 ft 355 kts 15°
2026-05-08 18:38 36.62017 -106.13886 30963 ft 356 kts 15°
2026-05-08 18:39 36.66697 -106.11867 30962 ft 356 kts 14°
2026-05-08 18:39 36.71361 -106.09727 30960 ft 356 kts 15°
2026-05-08 18:40 36.76055 -106.07735 30962 ft 357 kts 15°
2026-05-08 18:40 36.80727 -106.05634 30954 ft 356 kts 15°
2026-05-08 18:41 36.85402 -106.03591 30956 ft 356 kts 15°
2026-05-08 18:41 36.90062 -106.01523 30954 ft 358 kts 15°
2026-05-08 18:42 36.94762 -105.99443 30973 ft 358 kts 15°
2026-05-08 18:42 36.99462 -105.97359 30959 ft 358 kts 14°
2026-05-08 18:43 37.04155 -105.95274 30951 ft 357 kts 15°
2026-05-08 18:43 37.08844 -105.93194 30958 ft 357 kts 14°
2026-05-08 18:44 37.13491 -105.91134 30953 ft 357 kts 14°
2026-05-08 18:44 37.18166 -105.89036 30953 ft 357 kts 14°
2026-05-08 18:45 37.22846 -105.86955 30950 ft 357 kts 14°
2026-05-08 18:45 37.27523 -105.84861 31113 ft 357 kts 14°
2026-05-08 18:46 37.32290 -105.83436 31146 ft 350 kts
2026-05-08 18:46 37.37112 -105.83452 31163 ft 345 kts 350°
2026-05-08 18:47 37.41742 -105.84834 31158 ft 341 kts 339°
2026-05-08 18:47 37.46148 -105.86974 31158 ft 341 kts 338°
2026-05-08 18:48 37.50586 -105.89099 31161 ft 341 kts 337°
2026-05-08 18:48 37.55017 -105.91246 31136 ft 341 kts 338°
2026-05-08 18:49 37.59453 -105.93393 31101 ft 341 kts 337°
2026-05-08 18:49 37.61669 -105.94467 30954 ft 341 kts 337°
2026-05-08 18:49 37.63888 -105.95539 30966 ft 341 kts 337°
2026-05-08 18:50 37.68319 -105.97694 30695 ft 342 kts 337°
2026-05-08 18:50 37.70542 -105.98772 30263 ft 343 kts 337°
2026-05-08 18:50 37.72751 -105.99841 29781 ft 345 kts 338°
2026-05-08 18:51 37.74989 -106.00921 29340 ft 345 kts 337°
2026-05-08 18:51 37.77224 -106.02025 28888 ft 344 kts 337°
2026-05-08 18:51 37.79454 -106.03113 28440 ft 344 kts 338°
2026-05-08 18:51 37.81665 -106.04275 27979 ft 342 kts 333°
2026-05-08 18:52 37.83757 -106.05677 27652 ft 337 kts 332°
2026-05-08 18:52 37.85854 -106.06983 27273 ft 335 kts 333°
2026-05-08 18:52 37.87958 -106.08249 26833 ft 334 kts 333°
2026-05-08 18:52 37.90027 -106.09573 26387 ft 333 kts 332°
2026-05-08 18:53 37.92085 -106.10916 25941 ft 332 kts 332°
2026-05-08 18:53 37.94150 -106.12212 25497 ft 331 kts 333°
2026-05-08 18:53 37.96210 -106.13497 25050 ft 329 kts 333°
2026-05-08 18:53 37.98249 -106.14804 24566 ft 328 kts 332°
2026-05-08 18:54 38.00284 -106.16109 24137 ft 327 kts 332°
2026-05-08 18:54 38.02317 -106.17389 23701 ft 326 kts 332°
2026-05-08 18:54 38.04337 -106.18672 23240 ft 323 kts 332°
2026-05-08 18:54 38.06311 -106.19929 22816 ft 319 kts 332°
2026-05-08 18:55 38.10246 -106.22454 21987 ft 314 kts 332°
2026-05-08 18:55 38.12189 -106.23690 21575 ft 311 kts 332°
2026-05-08 18:55 38.14122 -106.24900 21169 ft 309 kts 332°
2026-05-08 18:56 38.16019 -106.26168 20760 ft 308 kts 331°
2026-05-08 18:56 38.17928 -106.27380 20355 ft 306 kts 335°
2026-05-08 18:56 38.19865 -106.28469 19953 ft 303 kts 334°
2026-05-08 18:56 38.21719 -106.29732 19564 ft 301 kts 329°
2026-05-08 18:57 38.23543 -106.31028 19158 ft 300 kts 333°
2026-05-08 18:57 38.24791 -106.31778 18895 ft 299 kts 335°
2026-05-08 18:57 38.27306 -106.33238 18377 ft 295 kts 334°
2026-05-08 18:57 38.29105 -106.34499 17882 ft 296 kts 330°
2026-05-08 18:58 38.30927 -106.35747 17433 ft 296 kts 333°
2026-05-08 18:58 38.32771 -106.36839 17054 ft 295 kts 334°
2026-05-08 18:58 38.34618 -106.37996 16661 ft 295 kts 331°
2026-05-08 18:58 38.36424 -106.39232 16272 ft 294 kts 331°
2026-05-08 18:59 38.38254 -106.40393 15886 ft 294 kts 334°
2026-05-08 18:59 38.40005 -106.41704 15494 ft 292 kts 319°
2026-05-08 18:59 38.41292 -106.43694 15115 ft 292 kts 303°
2026-05-08 18:59 38.42117 -106.46053 14710 ft 294 kts 286°
2026-05-08 19:00 38.42328 -106.47758 14453 ft 294 kts 277°
2026-05-08 19:00 38.42447 -106.51237 13949 ft 293 kts 275°
2026-05-08 19:00 38.42652 -106.53827 13540 ft 294 kts 277°
2026-05-08 19:00 38.42838 -106.56417 13144 ft 293 kts 274°
2026-05-08 19:01 38.42908 -106.59005 12753 ft 291 kts 273°
2026-05-08 19:01 38.43012 -106.61549 12379 ft 291 kts 275°
2026-05-08 19:01 38.43233 -106.64099 11989 ft 287 kts 281°
2026-05-08 19:01 38.44029 -106.66391 11787 ft 280 kts 303°
2026-05-08 19:02 38.45275 -106.68228 11764 ft 272 kts 316°
2026-05-08 19:02 38.46702 -106.69824 11503 ft 274 kts 316°
2026-05-08 19:02 38.48098 -106.71482 11154 ft 272 kts 316°
2026-05-08 19:02 38.49423 -106.73176 10793 ft 267 kts 306°
2026-05-08 19:03 38.50099 -106.74482 10558 ft 266 kts 302°
2026-05-08 19:03 38.51125 -106.76391 10234 ft 255 kts 306°
2026-05-08 19:03 38.52201 -106.78155 9917 ft 248 kts 305°
2026-05-08 19:03 38.52890 -106.80140 9574 ft 243 kts 289°
2026-05-08 19:04 38.53448 -106.82150 9287 ft 236 kts 290°
2026-05-08 19:04 38.54060 -106.84016 9271 ft 214 kts 296°
2026-05-08 19:04 38.54593 -106.85674 9213 ft 194 kts 287°
2026-05-08 19:04 38.54781 -106.87326 9012 ft 176 kts 272°
2026-05-08 19:05 38.54654 -106.88771 8669 ft 152 kts 258°
2026-05-08 19:05 38.54369 -106.89935 8116 ft 123 kts 249°
2026-05-08 19:05 38.54110 -106.90862 7781 ft 102 kts 247°
2026-05-08 19:05 38.53893 -106.91720 7671 ft 93 kts 254°
2026-05-08 19:06 38.53742 -106.92387 7668 ft 54 kts 253°
2026-05-08 19:06 38.53644 -106.92809 7666 ft 52 kts 253°
2026-05-08 19:06 38.53550 -106.93210 7665 ft 41 kts 252°
2026-05-08 19:06 38.53580 -106.93360 7664 ft 18 kts 342°
2026-05-08 19:07 38.53590 -106.93499 7664 ft 20 kts 248°
2026-05-08 19:07 38.53554 -106.93669 7662 ft 20 kts 256°
2026-05-08 19:07 38.53514 -106.93834 7662 ft 19 kts 253°
2026-05-08 19:07 38.53480 -106.93992 7661 ft 18 kts 254°
2026-05-08 19:08 38.53447 -106.94141 7661 ft 17 kts 265°
2026-05-08 19:08 38.53505 -106.94219 7661 ft 10 kts 277°
2026-05-08 19:08 38.53496 -106.94278 7660 ft 0 kts 258°